| time (UTC) | temp F | wind direction | speed MPH | gust MPH | rain 1hr in | rain 24hr in | rain mn in | humidity % | barometer mb |
| 20260503205405 | 59 | 37 | 3.0 | 7.0 | 0.00 | 0.00 | 0.00 | 38 | 1008.5 |
| 20260503204402 | 59 | 134 | 1.0 | 5.0 | 0.00 | 0.00 | 0.00 | 38 | 1008.6 |
| 20260503203408 | 59 | 303 | 1.0 | 9.0 | 0.00 | 0.00 | 0.00 | 39 | 1008.7 |
| 20260503201244 | 58 | 315 | 1.0 | 10.0 | 0.00 | 0.00 | 0.00 | 38 | 1009.0 |
| 20260503200235 | 57 | 327 | 3.0 | 10.0 | 0.00 | 0.00 | 0.00 | 40 | 1009.3 |
| 20260503195210 | 57 | 25 | 1.0 | 9.0 | 0.00 | 0.00 | 0.00 | 40 | 1009.4 |
| 20260503194158 | 57 | 347 | 1.0 | 8.0 | 0.00 | 0.00 | 0.00 | 39 | 1009.6 |
| 20260503193222 | 56 | 37 | 4.0 | 8.0 | 0.00 | 0.00 | 0.00 | 40 | 1009.8 |
| 20260503192240 | 56 | 353 | 1.0 | 8.0 | 0.00 | 0.00 | 0.00 | 38 | 1010.0 |
| 20260503191257 | 57 | 340 | 3.0 | 8.0 | 0.00 | 0.00 | 0.00 | 37 | 1010.3 |
| 20260503185126 | 56 | 353 | 4.0 | 10.0 | 0.00 | 0.00 | 0.00 | 39 | 1010.6 |
| 20260503184146 | 57 | 178 | 4.0 | 10.0 | 0.00 | 0.00 | 0.00 | 39 | 1010.6 |
| 20260503183119 | 56 | 200 | 4.0 | 10.0 | 0.00 | 0.00 | 0.00 | 38 | 1010.8 |
| 20260503182133 | 55 | 36 | 3.0 | 11.0 | 0.00 | 0.00 | 0.00 | 39 | 1010.8 |
| 20260503181059 | 54 | 340 | 3.0 | 11.0 | 0.00 | 0.00 | 0.00 | 43 | 1011.1 |
| 20260503180040 | 55 | 319 | 3.0 | 14.0 | 0.00 | 0.00 | 0.00 | 41 | 1010.9 |
| 20260503175015 | 56 | 354 | 4.0 | 14.0 | 0.00 | 0.00 | 0.00 | 41 | 1010.9 |
| 20260503174010 | 56 | 4 | 3.0 | 10.0 | 0.00 | 0.00 | 0.00 | 42 | 1011.1 |
| 20260503173018 | 55 | 346 | 3.0 | 9.0 | 0.00 | 0.00 | 0.00 | 42 | 1011.3 |
| 20260503170854 | 54 | 158 | 3.0 | 7.0 | 0.00 | 0.00 | 0.00 | 47 | 1011.3 |
| 20260503150605 | 51 | 169 | 0.0 | 4.0 | 0.00 | 0.00 | 0.00 | 51 | 1012.7 |
| 20260503131129 | 44 | 341 | 1.0 | 3.0 | 0.00 | 0.00 | 0.00 | 60 | 1013.7 |
| 20260503130122 | 43 | 345 | 0.0 | 3.0 | 0.00 | 0.00 | 0.00 | 61 | 1013.8 |
| 20260503110725 | 32 | 115 | 0.0 | 0.0 | 0.00 | 0.00 | 0.00 | 92 | 1013.6 |
| 20260503090203 | 31 | 169 | 0.0 | 0.0 | 0.00 | 0.00 | 0.00 | 88 | 1013.1 |
| 20260503081132 | 33 | 169 | 0.0 | 0.0 | 0.00 | 0.00 | 0.00 | 87 | 1013.3 |
| 20260503080105 | 33 | 169 | 0.0 | 0.0 | 0.00 | 0.00 | 0.00 | 86 | 1013.3 |
| 20260503072115 | 34 | 169 | 0.0 | 0.0 | 0.00 | 0.00 | 0.00 | 83 | 1013.3 |
| 20260503054746 | 38 | 169 | 0.0 | 0.0 | 0.00 | 0.00 | 0.00 | 79 | 1013.5 |
| 20260503053712 | 38 | 169 | 0.0 | 0.0 | 0.00 | 0.00 | 0.00 | 78 | 1013.5 |
| 20260503052651 | 38 | 167 | 0.0 | 0.0 | 0.00 | 0.00 | 0.00 | 78 | 1013.6 |
| 20260503050453 | 39 | 188 | 0.0 | 0.0 | 0.00 | 0.00 | 0.00 | 78 | 1013.8 |
| 20260503044244 | 39 | 191 | 0.0 | 0.0 | 0.00 | 0.00 | 0.00 | 78 | 1013.9 |
| 20260503043211 | 39 | 162 | 0.0 | 0.0 | 0.00 | 0.00 | 0.00 | 77 | 1014.0 |
| 20260503042146 | 39 | 204 | 0.0 | 0.0 | 0.00 | 0.00 | 0.00 | 77 | 1014.1 |
| 20260503040047 | 39 | 165 | 0.0 | 0.0 | 0.00 | 0.00 | 0.00 | 76 | 1014.1 |
| 20260503035108 | 39 | 68 | 0.0 | 1.0 | 0.00 | 0.00 | 0.00 | 76 | 1014.1 |
| 20260503034102 | 39 | 320 | 0.0 | 1.0 | 0.00 | 0.00 | 0.00 | 76 | 1014.1 |
| 20260503033043 | 39 | 145 | 0.0 | 0.0 | 0.00 | 0.00 | 0.00 | 76 | 1014.1 |
| 20260503032024 | 39 | 70 | 0.0 | 0.0 | 0.00 | 0.00 | 0.00 | 76 | 1014.2 |
| 20260503031001 | 39 | 172 | 0.0 | 0.0 | 0.00 | 0.00 | 0.00 | 76 | 1014.2 |
| 20260503025943 | 40 | 214 | 0.0 | 0.0 | 0.00 | 0.00 | 0.00 | 77 | 1014.3 |
| 20260503024930 | 40 | 332 | 0.0 | 0.0 | 0.00 | 0.00 | 0.00 | 76 | 1014.3 |
| 20260503023932 | 40 | 148 | 0.0 | 0.0 | 0.00 | 0.00 | 0.00 | 76 | 1014.3 |
| 20260503022942 | 40 | 356 | 0.0 | 2.0 | 0.00 | 0.00 | 0.00 | 75 | 1014.4 |
| 20260503021927 | 40 | 56 | 0.0 | 0.0 | 0.00 | 0.00 | 0.00 | 75 | 1014.5 |
| 20260503014703 | 40 | 344 | 0.0 | 1.0 | 0.00 | 0.00 | 0.00 | 74 | 1014.5 |
| 20260503013652 | 40 | 44 | 0.0 | 0.0 | 0.00 | 0.00 | 0.00 | 74 | 1014.5 |
| 20260503012709 | 40 | 339 | 0.0 | 0.0 | 0.00 | 0.00 | 0.00 | 74 | 1014.5 |
| 20260503011646 | 40 | 53 | 0.0 | 0.0 | 0.00 | 0.00 | 0.00 | 74 | 1014.5 |
| 20260503010628 | 40 | 135 | 0.0 | 0.0 | 0.00 | 0.00 | 0.00 | 74 | 1014.4 |
| 20260503005624 | 40 | 166 | 0.0 | 1.0 | 0.00 | 0.00 | 0.00 | 75 | 1014.4 |
| 20260503004644 | 40 | 359 | 0.0 | 0.0 | 0.00 | 0.00 | 0.00 | 74 | 1014.3 |
| 20260503003654 | 40 | 30 | 0.0 | 0.0 | 0.00 | 0.00 | 0.00 | 74 | 1014.2 |
| 20260503002655 | 41 | 1 | 0.0 | 1.0 | 0.00 | 0.00 | 0.00 | 73 | 1014.1 |
| 20260503001647 | 41 | 340 | 0.0 | 0.0 | 0.00 | 0.00 | 0.00 | 74 | 1014.1 |
| 20260503000636 | 41 | 347 | 0.0 | 1.0 | 0.00 | 0.00 | 0.00 | 73 | 1014.1 |
| 20260502235637 | 41 | 8 | 0.0 | 0.0 | 0.00 | 0.00 | 0.00 | 73 | 1014.0 |
| 20260502234632 | 41 | 340 | 0.0 | 0.0 | 0.00 | 0.00 | 0.00 | 73 | 1014.0 |
| 20260502233629 | 41 | 321 | 0.0 | 3.0 | 0.00 | 0.00 | 0.00 | 72 | 1013.9 |
| 20260502232649 | 41 | 359 | 0.0 | 3.0 | 0.00 | 0.00 | 0.00 | 72 | 1013.9 |
| 20260502231654 | 41 | 355 | 0.0 | 1.0 | 0.00 | 0.00 | 0.00 | 72 | 1013.8 |
| 20260502230623 | 42 | 300 | 0.0 | 3.0 | 0.00 | 0.00 | 0.00 | 71 | 1013.8 |
| 20260502225629 | 42 | 353 | 0.0 | 3.0 | 0.00 | 0.00 | 0.00 | 71 | 1013.8 |
| 20260502224554 | 42 | 334 | 0.0 | 0.0 | 0.00 | 0.00 | 0.00 | 71 | 1013.7 |
| 20260502221321 | 42 | 1 | 0.0 | 1.0 | 0.00 | 0.01 | 0.00 | 71 | 1013.6 |
| 20260502215115 | 42 | 8 | 0.0 | 1.0 | 0.00 | 0.01 | 0.00 | 70 | 1013.6 |
| 20260502214136 | 43 | 350 | 0.0 | 0.0 | 0.00 | 0.01 | 0.00 | 71 | 1013.7 |
| 20260502213139 | 43 | 345 | 0.0 | 5.0 | 0.00 | 0.01 | 0.00 | 68 | 1013.6 |
| 20260502212135 | 43 | 349 | 0.0 | 5.0 | 0.00 | 0.02 | 0.00 | 64 | 1013.4 |
| 20260502211145 | 44 | 8 | 0.0 | 1.0 | 0.00 | 0.02 | 0.00 | 68 | 1013.4 |